Simultaneous Nadir Overpasses (SNOs) Predictions

Prediction of SNOs between GOES-17 and METOP-C Satellite Orbit:

Table of predicted SNOs for the next 14.0 days since TLE Epoch: 6/6/2025
Index Date Time (GOES-17) GOES-17 Lat,Lon METOP-C Lat,Lon Distance(km) Time Diff (sec)
1 06/07/2025 04:19:13 -0.01,-104.38 0.39,-102.48 215.49 80
2 06/08/2025 16:38:07 0.01,-104.44 0.57,-107.06 297.23 80
3 06/09/2025 16:20:07 0.01,-104.44 -0.52,-102.06 271.86 80
4 06/11/2025 04:39:09 -0.00,-104.38 -0.49,-106.65 259.10 80
5 06/12/2025 04:15:49 -0.00,-104.37 0.60,-101.65 309.60 80
6 06/13/2025 16:34:41 0.00,-104.43 0.40,-106.22 203.58 80
7 06/14/2025 16:16:42 0.00,-104.43 -0.70,-101.22 365.44 80
8 06/16/2025 04:35:43 -0.00,-104.37 -0.31,-105.82 165.18 80
9 06/17/2025 04:12:24 -0.00,-104.36 0.79,-100.82 403.70 80
10 06/18/2025 16:31:16 0.01,-104.42 0.20,-105.39 109.37 80
11 06/19/2025 16:13:17 0.00,-104.42 -0.90,-100.39 459.83 80
